Overview Statistics Trail Chart Weather Telemetry Raw packets
 

This is the latest recevied weather packets stored in our database for station/object NO9B. If no packets are shown the sender has not sent any weather packets the latest 10 day(s).

<< 3 4 5 6 7 8 9 >>
Time Temp. Humidity Pressure Rain* Wind** Luminosity Snow
1788635293 26.67° C 80% 1017.4 hPa 0 mm - 65 W/m² -
1788634987 26.67° C 80% 1017.5 hPa 0 mm - 136 W/m² -
1788634686 27.22° C 78% 1017.5 hPa 0 mm - 100 W/m² -
1788634381 27.22° C 77% 1017.5 hPa 0 mm - 136 W/m² -
1788634081 27.22° C 78% 1017.4 hPa 0 mm - 663 W/m² -
1788633780 27.22° C 78% 1017.3 hPa 0 mm - 136 W/m² -
1788633479 27.22° C 77% 1017.6 hPa 0 mm - 155 W/m² -
1788633175 27.22° C 77% 1017.4 hPa 0 mm - 187 W/m² -
1788632874 27.22° C 78% 1017.4 hPa 0 mm - 157 W/m² -
1788632573 27.22° C 78% 1017.3 hPa 0 mm - 242 W/m² -
1788632269 27.22° C 77% 1017.4 hPa 0 mm - 235 W/m² -
1788631969 27.22° C 77% 1017.5 hPa 0 mm - 210 W/m² -
1788631668 27.22° C 80% 1017.4 hPa 0 mm - 183 W/m² -
1788631363 26.67° C 80% 1017.5 hPa 0 mm - 364 W/m² -
1788631058 26.67° C 78% 1017.5 hPa 0 mm - 144 W/m² -
1788630753 27.22° C 77% 1017.6 hPa 0 mm - 112 W/m² -
1788630448 26.67° C 81% 1017.5 hPa 0 mm - 606 W/m² -
1788630144 27.22° C 78% 1017.5 hPa 0 mm - 84 W/m² -
1788629840 26.67° C 80% 1017.6 hPa 0 mm - 714 W/m² -
1788629559 26.11° C 82% 1017.7 hPa 0 mm - 155 W/m² -
1788629235 26.11° C 81% 1017.5 hPa 0 mm - 69 W/m² -
1788628935 26.67° C 81% 1017.6 hPa 0 mm - 65 W/m² -
1788628631 26.67° C 80% 1017.5 hPa 0 mm - 106 W/m² -
1788628326 26.67° C 80% 1017.6 hPa 0 mm - 109 W/m² -
1788628024 26.67° C 81% 1017.6 hPa 0 mm - 106 W/m² -

* Rain latest hour (hover to see other rain measurements)
** Current wind speed in m/s (hover to see current wind gust speed)